User: anonymous   Login
Location: Bothwell
(42.3833°S, 147.0000°E)
Time: 00:24:42
(UTC+10:00)
Language:

SPROUT - Orbit

View from above orbital plane
View from above orbital plane
View from above satellite
View from above satellite

Ground track
Ground track

The orbit data is extracted from the following two-line orbital elements,

1 39770U 14029E   22267.88072595  .00006378  00000-0  63497-3 0  9991
2 39770  97.9486  25.5474 0009546 117.3271 242.8920 14.91946091452488
Epoch (UTC): 24 September 2022 21:08:14
Eccentricity: 0.0009546
inclination: 97.9486°
perigee height: 585 km
apogee height: 598 km
right ascension of ascending node: 25.5474°
argument of perigee: 117.3271°
revolutions per day: 14.91946091
mean anomaly at epoch: 242.8920°
orbit number at epoch: 45248

The dashed part of the orbit path shows where the satellite is in the earth's shadow,  

DLR